Ellicott, CO

2:13 AM MDT on October 19, 2019 (GMT -0600)
Ellicott

Weather History for KABH - September, 2019

Change the Weather History Date:

Monday, September 16, 2019

  Actual Average (KCOS) Record (KCOS)
Temperature  
Mean Temperature 71 °F -  
Max Temperature 82 °F 73 °F 92 °F (2018)
Min Temperature 60 °F 47 °F 29 °F (1965)
Cooling Degree Days 6    
Growing Degree Days 21 (Base 50)    
Moisture  
Dew Point 43 °F    
Average Humidity 37    
Maximum Humidity 56    
Minimum Humidity 22    
Precipitation  
Precipitation 0.00 in - - ()
Sea Level Pressure  
Sea Level Pressure 29.84 in    
Wind  
Wind Speed 12 mph ()    
Max Wind Speed 22 mph    
Max Gust Speed 29 mph    
Averages and records for this station are not official NWS values.
T = Trace of Precipitation, MM = Missing Value Source: Averaged Metar Reports

Daily Weather History Graph

Daily Weather History Graph

Search for Another Location

Airport or City:

Astronomy

Sep. 16, 2019 Rise Set
Actual Time 6:39 AM MDT 7:04 PM MDT
Civil Twilight 6:12 AM MDT 7:30 PM MDT
Nautical Twilight 5:41 AM MDT 8:02 PM MDT
Astronomical Twilight 5:09 AM MDT 8:33 PM MDT
Moon 8:41 PM MDT (9/16) 8:47 AM MDT (9/16)
Length of Visible Light 13h 17m
Length of Day
12h 24m
Waning Gibbous, 94% of the Moon is Illuminated
Sep 16
Waning Gibbous
Sep 21
Last Quarter
Sep 28
New
Oct 5
First Quarter
Oct 13
Full

Hourly Weather History & Observations

Time (MDT) Temp. Dew Point Humidity Pressure Visibility Wind Dir Wind Speed Gust Speed Precip Events Conditions
12:58 AM 61.0 °F 41.5 °F 49% 29.88 in - SE 11.5 mph - N/A   Clear
1:58 AM 60.8 °F 42.3 °F 50% 29.89 in - SE 15.0 mph - N/A   Scattered Clouds
2:58 AM 62.1 °F 41.7 °F 47% 29.88 in - SSE 13.8 mph - N/A   Mostly Cloudy
3:58 AM 60.4 °F 41.4 °F 49% 29.87 in - SSE 9.2 mph - N/A   Mostly Cloudy
4:58 AM 61.5 °F 42.3 °F 49% 29.86 in - SSE 12.7 mph - N/A   Mostly Cloudy
5:58 AM 61.0 °F 42.8 °F 51% 29.88 in - SSE 10.4 mph - N/A   Overcast
7:58 AM 66.0 °F 43.7 °F 44% 29.90 in - South 9.2 mph - N/A   Mostly Cloudy
8:58 AM 70.0 °F 44.6 °F 40% 29.90 in - SSW 10.4 mph - N/A   Clear
9:58 AM 75.4 °F 43.2 °F 32% 29.88 in - South 18.4 mph 23.0 mph N/A   Clear
10:58 AM 78.6 °F 42.3 °F 27% 29.88 in - South 21.9 mph 28.8 mph N/A   Clear
11:58 AM 81.0 °F 40.6 °F 24% 29.85 in - South 20.7 mph 26.5 mph N/A   Partly Cloudy
12:58 PM 80.2 °F 41.5 °F 25% 29.84 in - SSW 20.7 mph 27.6 mph N/A   Mostly Cloudy
1:58 PM 81.9 °F 41.0 °F 23% 29.82 in - South 18.4 mph 26.5 mph N/A   Mostly Cloudy
2:30 PM 82.4 °F 41.0 °F 23% 29.81 in - SSE 19.6 mph 24.2 mph N/A   Clear
2:58 PM 81.7 °F 39.0 °F 22% 29.81 in - SSE 15.0 mph 24.2 mph N/A   Clear
3:58 PM 81.7 °F 40.6 °F 23% 29.80 in - South 15.0 mph 23.0 mph N/A   Clear
4:58 PM 81.7 °F 40.6 °F 23% 29.78 in - SSE 15.0 mph 19.6 mph N/A   Mostly Cloudy
5:45 PM 80.6 °F 42.8 °F 26% 29.78 in - SSE 17.3 mph - N/A   Scattered Clouds
5:58 PM 79.5 °F 43.3 °F 28% 29.78 in - SE 17.3 mph 23.0 mph N/A   Mostly Cloudy
6:58 PM 75.7 °F 44.4 °F 33% 29.79 in - SE 11.5 mph - N/A   Mostly Cloudy
7:58 PM 71.2 °F 45.9 °F 40% 29.79 in - SE 12.7 mph - N/A   Clear
8:58 PM 67.8 °F 45.9 °F 45% 29.80 in - SE 11.5 mph - N/A   Scattered Clouds
9:58 PM 64.6 °F 46.2 °F 51% 29.81 in - ESE 10.4 mph - N/A   Clear
11:58 PM 62.4 °F 46.4 °F 56% 29.78 in - SE 8.1 mph - N/A   Clear